Location: *
(44.1392°N, 4.8079°E)
Time: 21:43:30
(UTC+00:00)

Cosmos 1437 Rocket - Pass Details

Date: 21 June 2021
Orbit: 500 x 566 km, 81.2° (Epoch: 02 August)

Event Time Altitude Azimuth Distance (km) Brightness Sun altitude
Rises 01:05:28 0° 343° (NNW) 2,667 7.2 -19.8°
Reaches altitude 10° 01:07:43 10° 336° (NNW) 1,762 6.0 -19.7°
Maximum altitude 01:11:22 42° 265° (W) 738 3.2 -19.4°
Enters shadow 01:11:33 42° 257° (WSW) 742 3.2 -19.4°
